{"data":{"norad_id":43174,"intl_designator":"2018-012A","name":"AL YAH 3","alt_names":[],"object_type":"PAYLOAD","status":"ACTIVE","operator":null,"country":"UAE","launch_date":"2018-01-25","launch_site_code":"FRGUI","launch_vehicle":null,"mission":null,"orbit_class":"UNKNOWN","rcs_meters":null,"size_class":null,"mass_kg":null,"dimensions":null,"purposes":["comms"],"wikipedia_slug":null,"has_3d_model":false,"image_url":null,"decayed_at":null,"tle_current":{"epoch":"2026-05-25T03:38:55.308192Z","epoch_age_seconds":58034,"freshness":"FRESH","line1":"1 43174U 18012A   26145.15202903 -.00000157  00000+0  00000+0 0  9993","line2":"2 43174   1.4947  83.3688 0004231 340.3664 213.6419  1.00272038 30617","mean_motion":1.00272038,"eccentricity":0.0004231,"inclination_deg":1.4947,"raan_deg":83.3688,"arg_perigee_deg":340.3664,"mean_anomaly_deg":213.6419,"bstar":0,"rev_number":3061,"period_min":1436.0932805614,"perigee_km":35768.684168171,"apogee_km":35804.36390434,"semimajor_km":42164.661036256,"source":"CELESTRAK","updated_at":"2026-05-25T13:38:14.050583Z"}}}